Regional Weather Roundup
Issued by NWS Charleston, SC

Current Version | Previous Version | Text Only | Print | Product List | Glossary Off
Versions: 1 2 3 4 5 6 7 8 9 10 11 12 13 14 15 16 17 18 19 20 21 22 23 24 25 26 27 28 29 30 31 32 33 34 35 36 37 38 39 40 41 42 43 44 45 46 47 48 49 50

191
ASUS42 KCHS 060612
RWRCHS

REGIONAL WEATHER ROUNDUP
NATIONAL WEATHER SERVICE CHARLESTON SC
100 AM EST SAT FEB 06 2016

NOTE: "FAIR" INDICATES FEW OR NO CLOUDS BELOW 12,000 FEET WITH NO
SIGNIFICANT WEATHER AND/OR OBSTRUCTIONS TO VISIBILITY.

NOT ALL STATIONS ARE QUALITY CONTROLLED BY THE NATIONAL
WEATHER SERVICE. USE DATA WITH CAUTION...ESPECIALLY
DEWPOINT OBSERVATIONS.

NOTICE: OBSERVATIONS FOR THE SAVANNAH-HILTON HEAD INTERNATIONAL AIRPORT
/KSAV/ HAVE BEEN TEMPORARILY REMOVED DUE TO AN ERRONEOUS TEMPERATURE
SENSOR. THE OBSERVATION WILL BE REINTRODUCED ONCE REPAIRS ARE COMPLETE.

SCZ027-030-031-034>040-042>050-060700-
...SOUTHEAST SOUTH CAROLINA...

CITY           SKY/WX    TMP DP  RH WIND       PRES   REMARKS
N CHARLESTON   CLEAR     33  30  88 N5        30.38F WCI  29
6HR MIN TEMP:  33; 6HR MAX TEMP:  44;

WATERFRONT PRK   N/A     44  34  67 NE8       30.23F
MOUNT PLEASANT FAIR      36  34  93 N3        30.38F
JOHNS ISLAND   FAIR      37  32  81 N5        30.38S WCI  34
PINOPOLIS        N/A     46  30  53 NE9       30.31S
MONCKS CORNER  FAIR      32  30  93 CALM      30.39S
SUMMERVILLE    NOT AVBL
BEAUFORT MCAS  CLEAR     40  28  62 CALM      30.38F
6HR MIN TEMP:  38; 6HR MAX TEMP:  46;

BEAUFORT ARPT  FAIR      37  32  81 NE3       30.37F
HILTON HEAD IS CLEAR     45  32  61 N6        30.39S
WALTERBORO     PTCLDY    41  27  56 NE5       30.39F
ALLENDALE      FAIR      37  28  70 CALM      30.37F

...SOUTHERN MIDLANDS AND PEE DEE...

CITY           SKY/WX    TMP DP  RH WIND       PRES   REMARKS
GEORGETOWN     NOT AVBL
KINGSTREE      NOT AVBL
ORANGEBURG     CLEAR     33  29  85 CALM      30.39F
6HR MIN TEMP:  33; 6HR MAX TEMP:  43;

BARNWELL       FAIR      32  30  93 CALM      30.39F
AIKEN          FAIR      30  25  80 NE6       30.41S WCI  24
MANNING        FAIR      30  19  64 CALM      30.40F
COLUMBIA       CLEAR     30  26  85 CALM      30.39F
6HR MIN TEMP:  30; 6HR MAX TEMP:  46;

SUMTER         CLEAR     32  25  73 CALM      30.37F
6HR MIN TEMP:  32; 6HR MAX TEMP:  41;

FLORENCE       CLEAR     31  29  92 CALM      30.40F
6HR MIN TEMP:  31; 6HR MAX TEMP:  43;

MYRTLE BEACH   CLEAR     36  27  69 CALM      30.42S
N MYRTLE BEACH CLEAR     35  33  92 NE5       30.40S WCI  31
6HR MIN TEMP:  34; 6HR MAX TEMP:  42;


$$

GAZ063-065-086>088-099>101-113>116-118-119-134>141-150-060700-
...SOUTHEAST GEORGIA...

CITY           SKY/WX    TMP DP  RH WIND       PRES   REMARKS
SAVANNAH ARPT  PTCLDY    40  28  62 E7        30.38S WCI  35
6HR MIN TEMP:  36; 6HR MAX TEMP:  46;

HUNTER AAF     PTCLDY    42  27  55 NE5       30.35S
6HR MIN TEMP:  41; 6HR MAX TEMP:  49;

FORT STEWART   PTCLDY    34  31  88 CALM      30.35F
6HR MIN TEMP:  34; 6HR MAX TEMP:  43;

STATESBORO     CLEAR     36  29  78 CALM      30.38S
SYLVANIA       CLEAR     34  34  99 CALM      30.38F
CLAXTON        FAIR      35  33  94 CALM      30.38S

...CSRA...CENTRAL AND FAR SOUTHEAST GEORGIA...

CITY           SKY/WX    TMP DP  RH WIND       PRES   REMARKS
THOMSON        CLEAR     30  30 100 CALM      30.42F
AUGUSTA-BUSH   CLEAR     30  28  92 CALM      30.39F
6HR MIN TEMP:  29; 6HR MAX TEMP:  45;

AUGUSTA-DANIEL CLEAR     40  21  46 E3        30.38S
SWAINSBORO     FAIR      37  28  70 NE3       30.38F
VIDALIA        CLEAR     36  30  80 NE3       30.37S
EASTMAN        FAIR      31  31 100 CALM      30.39F FOG
HAZLEHURST     FAIR      39  30  69 E5        30.35F WCI  36
ALMA           CLEAR     34  32  92 CALM      30.36S
6HR MIN TEMP:  33; 6HR MAX TEMP:  42;

WAYCROSS       CLEAR     37  37  99 CALM      30.36F
JESUP          FAIR      36  34  93 CALM      30.37S
BAXLEY         FAIR      36  36 100 CALM      30.36S
BRUNSWICK      PTCLDY    39  36  87 CALM      30.37S
SAINT SIMONS   CLOUDY    43  36  76 N6        30.35F
6HR MIN TEMP:  40; 6HR MAX TEMP:  48;


$$

SCZ027-028-034-036>038-045-046-048>050-GAZ119-141-060700-
...LAKE AND SUPPLEMENTAL COASTAL OBSERVATIONS...

STATION/POSITION TIME  TEMP    WIND        PRES    WAVE   SWELL
                       AIR SEA DIR/SP/G            HT/PER HT/PER/DIR
                 (UTC) (F)     (DEG/KT/KT) (MB)    (FT/S) (FT/S/D)
WINYAH BAY       0445   41      30/  4     1028.0
LAKE MURRAY      0500   37      CALM  /  1 1028.8S
ACE BASIN NERRS  0445   35        CALM     1029.0
FORT PULASKI     0500   47 55   20/  8/ 11 1028.7F
SAPELO ISLAND    0500   41      40/  4     1028.0S

$$

ANZ835-935-AMZ111-154-330-350-352-354-370-450-454-472-060700-
...C-MAN AND BUOY OBSERVATIONS...

STATION/POSITION TIME  TEMP    WIND        PRES    WAVE   SWELL
                       AIR SEA DIR/SP/G            HT/PER HT/PER/DIR
                 (UTC) (F)     (DEG/KT/KT) (MB)    (FT/S) (FT/S/D)
BUOY 41004       0550   51 67   20/ 12/ 17 1027.6F   4/ 5   2/ 6
BUOY 41008       0550   51 56   50/ 14/ 17 1028.0F   3/ 6   2/ 80/ 9
FOLLY BEACH CMAN 0600   46      30/ 10/ 13 1028.6F
CAPERS NEARSHORE 0508   49      60/ 12/ 17 1027.9F
FRIPP NEARSHORE  0500   49      40/ 16/ 17 1027.5F


STATION/POSITION TIME  TEMP    WIND        PRES    WAVE   SWELL
                       AIR SEA DIR/SP/G            HT/PER HT/PER/DIR
                 (UTC) (F)     (DEG/KT/KT) (MB)    (FT/S) (FT/S/D)
5E ST. MARYS GA  0521      58                N/A     3/ 4
FRYING PAN BUOY  0500   50 69   10/ 14/ 17 1029.0R
BUOY 41025       0550   45 73   10/ 14/ 21 1029.1R   7/11   7/ 50/11
CAPE LOOKOUT NC  NOT AVBL
BUOY 41002       0550   58 69   40/ 19/ 23   N/A    10/11   7/360/11
BUOY 41010       0520   65 73              1023.1S
ST AUGUSTINE FL  0600   54 58   10/ 26/ 28 1025.1F


$$




USA.gov is the U.S. government's official web portal to all federal, state and local government web resources and services.